Date String (YYYY-MM-DD hh:mm:ss) UTC,Instrument flags,Ambient pressure (hPa),Sample flow (lpm),Bypass flow (lpm),Sample temperature (°C),Ambient temperature (°C),ASC tube jacket temperature (°C),LED temperature (°C),Box temperature (°C),Sample RH (%),Span deviation,Mass concentration (μg/m³),Mass concentration (μg/m³),Mass concentration (μg/m³)
DateTimeUTC,F1_M11,P_M11,Q1_M11,Q2_M11,T1_M11,T2_M11,T3_M11,T4_M11,T5_M11,U1_M11,ZSPAN_M11,X2_M11,X0_M11,X1_M11
2022-08-05 19:00:00,,0826.2,5.01,0.00,29.3,27.6,00.0,37.9,31.2,30.1,0002.0,0010.49,0027.11,0007.69
2022-08-05 19:01:00,,0826.2,4.99,0.00,29.3,27.3,00.0,37.9,31.2,30.6,0002.0,0010.30,0027.09,0007.64
2022-08-05 19:02:00,,0826.2,5.02,0.00,29.3,27.3,00.0,37.9,31.1,30.2,0002.1,0010.25,0028.35,0007.60
2022-08-05 19:03:00,,0826.2,4.99,0.00,29.2,27.4,00.0,37.9,31.1,31.5,0002.3,0010.22,0028.17,0007.55
2022-08-05 19:04:00,,0826.2,5.01,0.00,29.2,27.6,00.0,37.9,31.1,32.3,0002.2,0010.24,0028.23,0007.56
2022-08-05 19:05:00,,0826.2,5.00,0.00,29.3,27.8,00.0,38.0,31.2,32.4,0001.8,0010.30,0028.87,0007.57
2022-08-05 19:06:00,,0826.2,5.00,0.00,29.3,27.6,00.0,37.9,31.2,32.1,0001.6,0010.36,0029.15,0007.56
2022-08-05 19:07:00,,0826.2,5.00,0.00,29.3,27.3,00.0,37.9,31.1,32.0,0001.7,0010.48,0029.84,0007.58
2022-08-05 19:08:00,,0826.2,5.00,0.00,29.3,27.2,00.0,37.9,31.1,32.0,0001.5,0010.49,0029.91,0007.61
2022-08-05 19:09:00,,0826.2,5.00,0.00,29.2,27.3,00.0,37.9,31.0,31.5,0001.7,0010.52,0031.40,0007.63
2022-08-05 19:10:00,,0826.2,4.99,0.00,29.2,27.5,00.0,37.9,31.0,31.7,0001.9,0010.54,0032.44,0007.65
2022-08-05 19:11:00,,0826.2,5.01,0.00,29.2,27.7,00.0,37.9,31.1,31.9,0002.1,0010.63,0033.09,0007.68
2022-08-05 19:12:00,,0826.1,4.99,0.00,29.3,27.7,00.0,37.9,31.2,32.1,0002.2,0010.77,0033.27,0007.72
2022-08-05 19:13:00,,0826.1,5.01,0.00,29.3,27.4,00.0,37.9,31.1,32.4,0002.3,0010.77,0032.04,0007.76
2022-08-05 19:14:00,,0826.2,4.99,0.00,29.2,27.2,00.0,37.9,31.1,32.1,0002.0,0010.87,0032.15,0007.80
2022-08-05 19:15:00,,0826.1,5.01,0.00,29.2,27.3,00.0,37.9,31.1,32.2,0002.2,0010.81,0032.55,0007.80
2022-08-05 19:16:00,,0826.2,5.00,0.00,29.2,27.5,00.0,37.9,31.0,32.2,0002.2,0010.67,0031.58,0007.79
2022-08-05 19:17:00,,0826.1,5.00,0.00,29.2,27.7,00.0,37.9,31.1,32.2,0002.0,0010.55,0030.98,0007.78
2022-08-05 19:18:00,,0826.2,4.99,0.00,29.3,27.8,00.0,37.9,31.2,32.0,0001.4,0010.48,0031.09,0007.79
2022-08-05 19:19:00,,0826.1,5.01,0.00,29.3,27.5,00.0,37.9,31.1,32.1,0001.2,0010.53,0031.42,0007.82
2022-08-05 19:20:00,,0826.1,5.00,0.00,29.2,27.1,00.0,37.8,31.0,32.4,0000.8,0010.58,0030.82,0007.83
2022-08-05 19:21:00,,0826.1,5.00,0.00,29.2,26.9,00.0,37.8,31.0,32.9,0000.1,0010.71,0030.82,0007.86
2022-08-05 19:22:00,,0826.1,5.00,0.00,29.1,27.0,00.0,37.8,30.9,32.9,-000.5,0010.63,0030.25,0007.88
2022-08-05 19:23:00,,0826.2,4.99,0.00,29.1,27.2,00.0,37.8,30.9,32.6,-000.7,0010.56,0030.05,0007.87
2022-08-05 19:24:00,,0826.2,5.02,0.00,29.1,27.4,00.0,37.8,31.0,32.8,-000.8,0010.54,0029.98,0007.86
2022-08-05 19:25:00,,0826.2,5.00,0.00,29.2,27.6,00.0,37.8,31.1,32.4,-000.5,0010.42,0029.35,0007.85
2022-08-05 19:26:00,,0826.1,5.00,0.00,29.2,27.8,00.0,37.9,31.2,31.9,-000.9,0010.39,0028.85,0007.83
2022-08-05 19:27:00,,0826.2,4.99,0.00,29.2,27.5,00.0,37.8,31.1,31.9,-001.0,0010.41,0029.80,0007.84
2022-08-05 19:28:00,,0826.2,5.01,0.00,29.2,27.1,00.0,37.8,31.0,32.2,-000.6,0010.50,0029.57,0007.83
2022-08-05 19:29:00,,0826.2,5.00,0.00,29.1,27.1,00.0,37.8,31.0,31.1,-000.8,0010.49,0028.81,0007.81
2022-08-05 19:30:00,,0826.2,4.99,0.00,29.1,27.2,00.0,37.8,30.9,30.7,-000.4,0010.49,0030.00,0007.77
2022-08-05 19:31:00,,0826.2,5.01,0.00,29.1,27.4,00.0,37.8,30.9,31.1,0000.1,0010.45,0030.31,0007.76
2022-08-05 19:32:00,,0826.2,4.99,0.00,29.1,27.6,00.0,37.8,31.0,30.6,0000.5,0010.34,0029.42,0007.73
2022-08-05 19:33:00,,0826.2,4.99,0.00,29.2,27.8,00.0,37.9,31.1,30.0,0000.7,0010.30,0028.78,0007.69
2022-08-05 19:34:00,,0826.2,4.99,0.00,29.2,27.4,00.0,37.8,31.1,30.4,0000.6,0010.23,0028.13,0007.64
2022-08-05 19:35:00,,0826.2,5.01,0.00,29.1,27.1,00.0,37.8,31.0,30.2,0000.5,0010.19,0029.54,0007.61
2022-08-05 19:36:00,,0826.2,4.99,0.00,29.1,27.1,00.0,37.8,31.0,30.2,0000.3,0010.15,0030.75,0007.59
2022-08-05 19:37:00,,0826.1,5.01,0.00,29.1,27.2,00.0,37.8,30.9,30.0,0000.3,0010.07,0030.00,0007.54
2022-08-05 19:38:00,,0826.2,5.00,0.00,29.1,27.4,00.0,37.8,30.9,30.1,0000.7,0009.99,0029.33,0007.50
2022-08-05 19:39:00,,0826.1,5.00,0.00,29.1,27.6,00.0,37.8,31.0,30.5,0000.5,0009.81,0028.86,0007.46
2022-08-05 19:40:00,,0826.2,5.01,0.00,29.1,27.8,00.0,37.8,31.1,30.6,0001.3,0009.75,0029.23,0007.44
2022-08-05 19:41:00,,0826.2,5.01,0.00,29.2,27.9,00.0,37.9,31.1,30.3,0001.5,0009.67,0027.73,0007.43
2022-08-05 19:42:00,,0826.2,4.99,0.00,29.2,27.5,00.0,37.8,31.0,30.2,0001.1,0009.69,0026.51,0007.42
2022-08-05 19:43:00,,0826.2,5.00,0.00,29.2,27.1,00.0,37.8,31.0,30.5,0001.6,0009.59,0026.10,0007.41
2022-08-05 19:44:00,,0826.2,4.99,0.00,29.1,27.1,00.0,37.8,31.0,30.4,0002.1,0009.57,0025.64,0007.42
2022-08-05 19:45:00,,0826.2,5.01,0.00,29.1,27.2,00.0,37.8,30.9,30.5,0002.1,0009.61,0027.13,0007.44
2022-08-05 19:46:00,,0826.2,4.99,0.00,29.1,27.4,00.0,37.8,30.9,30.5,0002.1,0009.59,0026.93,0007.46
2022-08-05 19:47:00,,0826.2,5.01,0.00,29.1,27.6,00.0,37.8,31.0,31.2,0002.1,0009.60,0025.51,0007.45
2022-08-05 19:48:00,,0826.2,4.99,0.00,29.2,27.8,00.0,37.8,31.1,31.2,0002.5,0009.55,0026.33,0007.44
2022-08-05 19:49:00,,0826.2,4.99,0.00,29.2,27.9,00.0,37.9,31.2,30.5,0002.0,0009.50,0026.13,0007.42
2022-08-05 19:50:00,,0826.2,5.01,0.00,29.2,27.5,00.0,37.8,31.1,30.3,0001.8,0009.48,0025.95,0007.38
2022-08-05 19:51:00,,0826.2,4.99,0.00,29.2,27.1,00.0,37.8,31.0,30.1,0001.8,0009.44,0025.72,0007.33
2022-08-05 19:52:00,,0826.2,5.01,0.00,29.1,27.1,00.0,37.8,31.0,30.2,0001.7,0009.42,0025.73,0007.31
2022-08-05 19:53:00,,0826.2,4.99,0.00,29.1,27.2,00.0,37.8,30.9,29.8,0002.3,0009.41,0024.98,0007.27
2022-08-05 19:54:00,,0826.2,5.01,0.00,29.1,27.4,00.0,37.8,30.9,30.0,0002.2,0009.41,0025.07,0007.23
2022-08-05 19:55:00,,0826.2,4.99,0.00,29.1,27.6,00.0,37.8,31.0,29.4,0002.2,0009.29,0024.89,0007.15
2022-08-05 19:56:00,,0826.2,4.99,0.00,29.2,27.8,00.0,37.9,31.1,29.3,0001.7,0009.17,0023.61,0007.09
2022-08-05 19:57:00,,0826.2,4.98,0.00,29.2,28.0,00.0,37.9,31.2,29.4,0001.3,0009.12,0022.07,0007.05
2022-08-05 19:58:00,,0826.2,5.00,0.00,29.3,27.9,00.0,37.9,31.2,29.5,0002.0,0008.95,0022.00,0006.99
2022-08-05 19:59:00,,0826.2,5.01,0.00,29.2,27.3,00.0,37.9,31.0,29.9,0001.6,0008.93,0022.89,0006.95
